Weather observations for the past three days for
Hilo, Hilo International Airport
| Date | Time (hst) | Wind (mph) | Vis. (mi.) | Weather | Sky Cond. | Temperature (ºF) | Relative Humidity | Wind Chill (°F) | Heat Index (°F) | Pressure | Precipitation (in) | ||||||
|---|---|---|---|---|---|---|---|---|---|---|---|---|---|---|---|---|---|
| Air | Dwpt | 6 hour | altimeter (in) | sea level (mb) | 1 hr | 3 hr | 6 hr | ||||||||||
| Max. | Min. | ||||||||||||||||
| 03 | 18:53 | Calm | 10.00 | Overcast | SCT029 OVC065 | 72 | 69.1 | 91% | 30.05 | 1017.4 | |||||||
| 03 | 17:53 | SW 5 | 10.00 | Overcast | FEW013 SCT027 OVC065 | 72 | 69.1 | 91% | 30.03 | 1016.6 | |||||||
| 03 | 16:53 | SW 8 | 10.00 | Overcast | BKN012 BKN037 OVC065 | 72 | 69.1 | 91% | 30.01 | 1016.0 | 0.05 | 0.16 | |||||
| 03 | 15:53 | Vrbl 6 | 5.00 | Light Rain Fog/Mist | FEW014 SCT020 OVC027 | 72 | 69.1 | 91% | 30.01 | 1016.0 | 0.1 | ||||||
| 03 | 14:53 | NW 3 | 4.00 | Light Rain | SCT021 BKN029 OVC045 | 73.9 | 69.1 | 85% | 30.01 | 1016.2 | 0.01 | ||||||
| 03 | 13:53 | W 8 | 9.00 | Light Rain | BKN036 OVC050 | 75 | 70 | 75.9 | 71.1 | 84% | 75 | 30.02 | 1016.3 | 0.26 | |||
| 03 | 12:53 | W 7 | 5.00 | Light Rain | FEW023 BKN039 OVC060 | 73.9 | 69.1 | 85% | 30.03 | 1016.9 | 0.08 | ||||||
| 03 | 11:53 | N 8 | 6.00 | Light Rain | SCT023 BKN037 OVC048 | 73 | 68 | 84% | 30.05 | 1017.4 | 0.02 | ||||||
| 03 | 10:53 | NW 8 | 9.00 | Overcast | BKN019 OVC065 | 75 | 70 | 84% | 75 | 30.06 | 1017.7 | 0.03 | 0.16 | ||||
| 03 | 09:53 | W 7 | 7.00 | Light Rain | SCT012 BKN037 OVC055 | 72 | 70 | 94% | 30.06 | 1017.7 | 0.04 | ||||||
| 03 | 08:53 | NW 5 | 6.00 | Rain Fog/Mist | FEW020 BKN035 OVC047 | 72 | 69.1 | 91% | 30.06 | 1017.8 | 0.09 | ||||||
| 03 | 07:53 | W 8 | 10.00 | Overcast | FEW018 BKN022 OVC060 | 71.1 | 68 | 71.1 | 69.1 | 90% | 30.05 | 1017.5 | 0.03 | 1.32 | |||
| 03 | 06:53 | W 7 | 9.00 | Light Rain | FEW018 BKN022 OVC060 | 69.1 | 68 | 96% | 30.04 | 1016.9 | 0.09 | ||||||
| 03 | 05:53 | W 8 | 9.00 | Light Rain | FEW018 BKN022 OVC046 | 69.1 | 68 | 96% | 30.02 | 1016.4 | 0.1 | ||||||
| 03 | 04:53 | W 7 | 5.00 | Light Rain Fog/Mist | FEW022 SCT031 OVC039 | 70 | 69.1 | 97% | 30.01 | 1016.1 | 0.48 | 1.1 | |||||
| 03 | 03:53 | Calm | 1.25 | Heavy Rain Fog/Mist | FEW005 BKN013 OVC022 | 70 | 69.1 | 97% | 30.01 | 1016.2 | 0.27 | ||||||
| 03 | 02:53 | SW 8 | 10.00 | Light Rain | FEW015 BKN031 OVC047 | 69.1 | 68 | 96% | 30.01 | 1016.1 | 0.35 | ||||||
| 03 | 00:53 | W 12 | 5.00 | Rain Fog/Mist | BKN014 OVC020 | 70 | 68 | 93% | 30.03 | 1016.9 | 0.02 | ||||||
| 02 | 23:53 | SW 5 | 10.00 | Overcast | SCT018 BKN024 OVC060 | 73 | 70 | 90% | 30.04 | 1017.0 | |||||||
| 02 | 22:53 | E 3 | 10.00 | Overcast | FEW021 SCT032 OVC049 | 73.9 | 69.1 | 85% | 30.04 | 1017.0 | |||||||
| 02 | 21:53 | E 5 | 10.00 | Overcast | FEW022 OVC070 | 73.9 | 68 | 82% | 30.03 | 1016.6 | |||||||
| 02 | 20:53 | E 10 | 10.00 | Overcast | FEW020 OVC070 | 75 | 69.1 | 82% | 75 | 30.01 | 1016.1 | ||||||
| 02 | 19:53 | E 10 | 10.00 | Mostly Cloudy | FEW019 SCT045 BKN070 | 73.9 | 69.1 | 79 | 73.9 | 85% | 29.99 | 1015.4 | |||||
| 02 | 18:53 | E 10 | 10.00 | Overcast | FEW022 BKN038 OVC075 | 75 | 68 | 79% | 76 | 29.97 | 1014.7 | ||||||
| 02 | 17:53 | E 9 | 10.00 | Overcast | FEW023 FEW034 OVC050 | 75.9 | 69.1 | 79% | 77 | 29.95 | 1014.1 | ||||||
| 02 | 16:53 | NE 7 | 5.00 | Light Rain | SCT021 BKN036 OVC070 | 75 | 70 | 84% | 75 | 29.94 | 1013.7 | ||||||
| 02 | 15:53 | E 15 | 10.00 | Overcast | SCT024 OVC070 | 78.1 | 68 | 71% | 80 | 29.94 | 1013.7 | ||||||
| 02 | 14:53 | E 15 | 10.00 | Overcast | SCT025 BKN033 OVC075 | 78.1 | 68 | 71% | 80 | 29.95 | 1014.0 | ||||||
| 02 | 13:53 | E 10 | 10.00 | Overcast | SCT023 BKN034 OVC055 | 78.1 | 69.1 | 79 | 70 | 74% | 80 | 29.96 | 1014.5 | 0.2 | |||
| 02 | 12:53 | Vrbl 7 | 9.00 | Light Rain | FEW027 BKN045 OVC060 | 78.1 | 70 | 76% | 80 | 30 | 1015.6 | ||||||
| 02 | 11:53 | Vrbl 3 | 10.00 | Overcast | FEW023 SCT041 OVC060 | 77 | 69.1 | 77% | 79 | 30.01 | 1016.2 | ||||||
| 02 | 10:53 | W 6 | 10.00 | Overcast | FEW023 SCT041 OVC060 | 75 | 69.1 | 82% | 75 | 30.03 | 1016.6 | 0.06 | 0.2 | ||||
| 02 | 09:53 | W 6 | 10.00 | Overcast | BKN022 OVC028 | 72 | 69.1 | 91% | 30.04 | 1017.1 | 0.05 | ||||||
| 02 | 08:53 | W 6 | 4.00 | Light Rain Fog/Mist | BKN022 OVC030 | 70 | 66.9 | 90% | 30.04 | 1017.2 | 0.09 | ||||||
| 02 | 07:53 | W 7 | 10.00 | Overcast | BKN023 BKN032 OVC040 | 71.1 | 66.9 | 72 | 69.1 | 87% | 30.03 | 1016.8 | 0.01 | 0.25 | |||
| 02 | 06:53 | W 7 | 2.50 | Rain Fog/Mist | FEW019 BKN025 OVC043 | 69.1 | 66 | 90% | 30.02 | 1016.4 | 0.09 | ||||||
| 02 | 05:53 | W 7 | 10.00 | Overcast | FEW022 BKN039 OVC055 | 69.1 | 66 | 90% | 30 | 1015.8 | 0.04 | ||||||
| 02 | 04:53 | SW 5 | 10.00 | Partly Cloudy | FEW021 SCT038 SCT044 | 69.1 | 66 | 90% | 30 | 1015.7 | 0.11 | ||||||
| 02 | 03:53 | SW 5 | 10.00 | Overcast | FEW020 SCT039 OVC070 | 70 | 66.9 | 90% | 29.99 | 1015.5 | 0.11 | ||||||
| 02 | 02:53 | W 3 | 10.00 | Mostly Cloudy | BKN070 | 71.1 | 68 | 90% | 30 | 1015.7 | |||||||
| 02 | 01:53 | E 6 | 10.00 | Overcast | FEW020 SCT045 OVC060 | 72 | 66 | 75 | 72 | 82% | 30 | 1015.9 | 0.05 | 0.05 | |||
| 02 | 00:53 | E 10 | 10.00 | Overcast | FEW028 OVC060 | 73.9 | 66.9 | 79% | 30.02 | 1016.5 | |||||||
| 01 | 23:53 | E 12 | 10.00 | Overcast | FEW023 FEW029 OVC060 | 75 | 66.9 | 76% | 76 | 30.04 | 1017.0 | ||||||
| 01 | 22:53 | E 12 | 10.00 | Overcast | FEW024 OVC060 | 73.9 | 66.9 | 79% | 30.05 | 1017.3 | |||||||
| 01 | 21:53 | E 9 | 10.00 | Mostly Cloudy | FEW027 FEW045 BKN065 | 73.9 | 66.9 | 79% | 30.05 | 1017.4 | |||||||
| 01 | 20:53 | E 8 | 10.00 | Mostly Cloudy | BKN060 | 73.9 | 66 | 76% | 30.04 | 1016.9 | |||||||
| 01 | 19:53 | E 9 | 10.00 | Partly Cloudy | FEW055 SCT070 | 73.9 | 66.9 | 81 | 73 | 79% | 30.02 | 1016.4 | |||||
| 01 | 18:53 | NE 8 | 10.00 | Partly Cloudy | SCT024 SCT055 | 73.9 | 66.9 | 79% | 30.01 | 1016.0 | |||||||
| 01 | 17:53 | E 9 | 10.00 | Mostly Cloudy | SCT025 BKN050 | 75.9 | 66 | 72% | 77 | 30 | 1015.7 | ||||||
| 01 | 16:53 | E 10 | 10.00 | Mostly Cloudy | FEW027 SCT060 BKN070 | 75.9 | 66 | 72% | 77 | 29.98 | 1015.1 | ||||||
| 01 | 15:53 | E 16 G 24 | 10.00 | Overcast | FEW026 OVC070 | 79 | 66.9 | 67% | 81 | 29.98 | 1015.0 | ||||||
| 01 | 14:53 | NE 18 G 25 | 10.00 | Mostly Cloudy | BKN025 BKN042 BKN075 | 80.1 | 68 | 67% | 83 | 29.99 | 1015.3 | ||||||
| 01 | 13:53 | E 16 | 10.00 | Mostly Cloudy | FEW025 BKN080 | 80.1 | 66.9 | 81 | 72 | 64% | 82 | 30.01 | 1016.1 | 0.01 | |||
| 01 | 12:53 | NE 17 | 10.00 | Mostly Cloudy | SCT023 BKN045 BKN055 | 81 | 68 | 65% | 84 | 30.03 | 1016.8 | ||||||
| 01 | 11:53 | E 15 G 23 | 10.00 | Mostly Cloudy | SCT023 SCT045 BKN055 | 80.1 | 70 | 71% | 83 | 30.05 | 1017.3 | ||||||
| 01 | 10:53 | N 5 | 10.00 | Overcast | FEW026 BKN045 OVC055 | 75 | 69.1 | 82% | 75 | 30.06 | 1017.7 | 0.01 | 0.01 | ||||
| 01 | 09:53 | W 6 | 10.00 | Light Rain | FEW026 BKN045 OVC055 | 73.9 | 66.9 | 79% | 30.07 | 1018.1 | |||||||
| 01 | 08:53 | NW 10 | 10.00 | Overcast | SCT023 BKN028 OVC080 | 73 | 68 | 84% | 30.08 | 1018.3 | |||||||
| 01 | 07:53 | W 9 | 10.00 | Overcast | SCT030 BKN060 OVC075 | 73 | 66.9 | 73 | 66.9 | 81% | 30.07 | 1018.0 | 0.05 | 0.67 | |||
| 01 | 06:53 | W 6 | 10.00 | Overcast | FEW031 SCT048 OVC085 | 70 | 66.9 | 90% | 30.05 | 1017.5 | 0.01 | ||||||
| 01 | 05:53 | W 7 | 6.00 | Light Rain Fog/Mist | SCT026 BKN040 OVC060 | 68 | 66 | 93% | 30.04 | 1017.0 | 0.06 | ||||||
| 01 | 04:53 | SE 9 | 10.00 | Light Rain | FEW007 BKN017 OVC047 | 68 | 66 | 93% | 30.04 | 1017.1 | 0.16 | 0.55 | |||||
| 01 | 03:53 | W 6 | 5.00 | Rain Fog/Mist | FEW017 BKN026 OVC075 | 68 | 66 | 93% | 30.03 | 1016.9 | 0.03 | ||||||
| 01 | 02:53 | Calm | 2.00 | Heavy Rain Fog/Mist | FEW014 OVC023 | 68 | 66 | 93% | 30.05 | 1017.3 | 0.36 | ||||||
| 01 | 01:53 | W 9 | 10.00 | Overcast | BKN013 BKN028 OVC034 | 69.1 | 66 | 72 | 69.1 | 90% | 30.06 | 1017.7 | 0.01 | 0.06 | |||
| 01 | 00:53 | W 8 | 10.00 | Overcast | SCT027 BKN044 OVC055 | 70 | 66.9 | 90% | 30.07 | 1018.0 | |||||||
| 30 | 23:53 | W 6 | 10.00 | Mostly Cloudy | SCT027 BKN034 BKN065 | 70 | 66.9 | 90% | 30.08 | 1018.6 | |||||||
| 30 | 22:53 | SW 6 | 10.00 | Mostly Cloudy | SCT027 BKN036 BKN065 | 69.1 | 66 | 90% | 30.1 | 1019.1 | 0.05 | ||||||
| 30 | 21:53 | SW 5 | 10.00 | Mostly Cloudy | SCT026 SCT036 BKN043 | 70 | 66 | 87% | 30.1 | 1019.1 | |||||||
| 30 | 20:53 | W 3 | 10.00 | Overcast | BKN027 BKN034 OVC043 | 70 | 66 | 87% | 30.09 | 1018.9 | 0.05 | ||||||
| 30 | 19:53 | NE 8 | 4.00 | Rain Fog/Mist | FEW024 BKN050 OVC070 | 70 | 66.9 | 81 | 70 | 90% | 30.08 | 1018.4 | |||||
| Date | Time (hst) | Wind (mph) | Vis. (mi.) | Weather | Sky Cond. | Air | Dwpt | Max. | Min. | Relative Humidity | Wind Chill (°F) | Heat Index (°F) | altimeter (in) | sea level (mb) | 1 hr | 3 hr | 6 hr |
| 6 hour | |||||||||||||||||
| Temperature (ºF) | Pressure | Precipitation (in) | |||||||||||||||